Location: Days
(41.3591°N, 106.7339°W)
Time: 13:33:10
(UTC+00:00)

RS-15 - Pass Details

Date: 07 July 2022
Orbit: 1881 x 2163 km, 64.8° (Epoch: 13 August)

Event Time Altitude Azimuth Distance (km) Brightness Sun altitude
Rises 06:54:33 0° 324° (NW) 5,696 11.4 -25.9°
Reaches altitude 10° 06:58:11 10° 320° (NW) 4,681 10.7 -26.0°
Maximum altitude 07:09:43 50° 250° (WSW) 2,546 8.4 -26.1°
Enters shadow 07:14:13 36° 202° (SSW) 2,946 8.4 -26.1°
